When you browse on this site, cookies collect data to enhance your experience and personalize the content and advertising you see.
Visit our Privacy Policy to learn more. By continuing to use the site, you agree to this use of cookies and data.
  • In Hungary
  • List of Countries
  • For 7 days
  • Water Temperature
  • Satellite Maps
  • Weather Map
  • News
  • Weather Widgets
  • user-avatar
    Login

    Hourly Weather Blackburn

    Today, 13 December, Thursday

    Time Temperature Precipitation Wind Pressure Humidity
    00:00 -1°C° 0 mm 7 mps 746 mmHg 75%
    01:00 -1°C° 0 mm 8 mps 745 mmHg 77%
    02:00 -1°C° 0 mm 8 mps 745 mmHg 78%
    03:00 -1°C° 0 mm 8 mps 745 mmHg 79%
    04:00 -1°C° 0 mm 8 mps 745 mmHg 79%
    05:00 -1°C° 0 mm 8 mps 745 mmHg 79%
    06:00 -1°C° 0 mm 8 mps 745 mmHg 79%
    07:00 -1°C° 0 mm 8 mps 745 mmHg 79%
    08:00 -1°C° 0 mm 8 mps 745 mmHg 78%
    09:00 -1°C° 0 mm 8 mps 745 mmHg 78%
    10:00 -1°C° 0 mm 8 mps 746 mmHg 76%
    11:00 0°C° 0 mm 8 mps 746 mmHg 73%
    12:00 +1°C° 0 mm 8 mps 746 mmHg 71%
    13:00 +1°C° 0 mm 8 mps 746 mmHg 72%
    14:00 0°C° 0 mm 7 mps 746 mmHg 73%
    15:00 0°C° 0 mm 7 mps 747 mmHg 74%
    16:00 0°C° 0 mm 7 mps 747 mmHg 75%
    17:00 +1°C° 0 mm 6 mps 747 mmHg 77%
    18:00 -1°C° 0 mm 6 mps 748 mmHg 79%
    19:00 -1°C° 0 mm 6 mps 748 mmHg 80%
    20:00 0°C° 0 mm 5 mps 748 mmHg 80%
    21:00 -1°C° 0 mm 5 mps 749 mmHg 81%
    22:00 -1°C° 0 mm 5 mps 749 mmHg 82%
    23:00 -1°C° 0 mm 4 mps 749 mmHg 83%

    Tomorrow, 14 December, Friday

    Time Temperature Precipitation Wind Pressure Humidity
    00:00 -1°C° 0 mm 4 mps 750 mmHg 84%
    01:00 -1°C° 0 mm 4 mps 750 mmHg 84%
    02:00 -1°C° 0 mm 4 mps 750 mmHg 85%
    03:00 -2°C° 0 mm 4 mps 750 mmHg 86%
    04:00 -2°C° 0 mm 4 mps 750 mmHg 86%
    05:00 -2°C° 0 mm 4 mps 750 mmHg 86%
    06:00 -2°C° 0 mm 4 mps 750 mmHg 87%
    07:00 -2°C° 0 mm 4 mps 750 mmHg 87%
    08:00 -2°C° 0 mm 4 mps 750 mmHg 87%
    09:00 -2°C° 0 mm 4 mps 750 mmHg 87%
    10:00 -1°C° 0 mm 5 mps 750 mmHg 81%
    11:00 -1°C° 0 mm 6 mps 750 mmHg 75%
    12:00 +1°C° 0 mm 6 mps 750 mmHg 69%
    13:00 +1°C° 0 mm 6 mps 750 mmHg 70%
    14:00 0°C° 0 mm 5 mps 750 mmHg 71%
    15:00 0°C° 0 mm 5 mps 750 mmHg 73%
    16:00 0°C° 0 mm 5 mps 750 mmHg 75%
    17:00 -2°C° 0 mm 6 mps 749 mmHg 77%
    18:00 -2°C° 0 mm 6 mps 749 mmHg 79%
    19:00 -2°C° 0 mm 6 mps 749 mmHg 79%
    20:00 -2°C° 0 mm 6 mps 749 mmHg 79%
    21:00 -2°C° 0 mm 7 mps 748 mmHg 79%
    22:00 -2°C° 0 mm 7 mps 748 mmHg 79%
    23:00 -2°C° 0 mm 7 mps 748 mmHg 79%

    Day after tomorrow, 15 December, Saturday

    Time Temperature Precipitation Wind Pressure Humidity
    00:00 -2°C° 0 mm 7 mps 747 mmHg 79%
    01:00 -2°C° 0 mm 8 mps 746 mmHg 77%
    02:00 -2°C° 0 mm 8 mps 746 mmHg 75%
    03:00 -3°C° 0 mm 9 mps 745 mmHg 72%
    04:00 -3°C° 0.1 mm 9 mps 744 mmHg 73%
    05:00 -3°C° 0.1 mm 9 mps 744 mmHg 74%
    06:00 -3°C° 0.1 mm 9 mps 743 mmHg 74%
    07:00 -3°C° 0.8 mm 10 mps 742 mmHg 77%
    08:00 -3°C° 0.8 mm 10 mps 741 mmHg 79%
    09:00 -3°C° 0.8 mm 11 mps 740 mmHg 81%
    10:00 -3°C° 1 mm 11 mps 740 mmHg 81%
    11:00 -2°C° 1 mm 10 mps 739 mmHg 81%
    12:00 -2°C° 1 mm 10 mps 738 mmHg 81%
    13:00 -2°C° 0.3 mm 11 mps 737 mmHg 82%
    14:00 -2°C° 0.3 mm 11 mps 735 mmHg 83%
    15:00 -1°C° 0.3 mm 11 mps 734 mmHg 83%
    16:00 -1°C° 1 mm 12 mps 732 mmHg 85%
    17:00 0°C° 1 mm 12 mps 730 mmHg 86%
    18:00 0°C° 1 mm 12 mps 728 mmHg 88%
    19:00 +2°C° 1 mm 12 mps 727 mmHg 88%
    20:00 +3°C° 1 mm 11 mps 725 mmHg 88%
    21:00 +5°C° 1 mm 10 mps 724 mmHg 88%
    22:00 +4°C° 0.4 mm 11 mps 725 mmHg 86%
    23:00 +4°C° 0.4 mm 12 mps 725 mmHg 84%

    16 December, Sunday

    Time Temperature Precipitation Wind Pressure Humidity
    00:00 +4°C° 0.4 mm 13 mps 726 mmHg 82%
    01:00 +3°C° 0.5 mm 12 mps 727 mmHg 79%
    02:00 +3°C° 0.5 mm 12 mps 729 mmHg 76%
    03:00 +3°C° 0.5 mm 11 mps 731 mmHg 74%
    04:00 +2°C° 0.1 mm 10 mps 732 mmHg 75%
    05:00 +2°C° 0.1 mm 9 mps 733 mmHg 76%
    06:00 +2°C° 0.1 mm 8 mps 734 mmHg 77%
    07:00 +2°C° 0 mm 7 mps 735 mmHg 79%
    08:00 +2°C° 0 mm 6 mps 735 mmHg 81%
    09:00 +2°C° 0 mm 5 mps 736 mmHg 83%
    10:00 +2°C° 0 mm 5 mps 736 mmHg 82%
    11:00 +3°C° 0 mm 5 mps 736 mmHg 81%
    12:00 +3°C° 0 mm 5 mps 737 mmHg 80%
    13:00 +4°C° 0.2 mm 4 mps 737 mmHg 82%
    14:00 +4°C° 0.2 mm 4 mps 737 mmHg 85%
    15:00 +4°C° 0.2 mm 4 mps 737 mmHg 87%
    16:00 +3°C° 0.4 mm 3 mps 737 mmHg 88%
    17:00 +3°C° 0.4 mm 3 mps 737 mmHg 90%
    18:00 +3°C° 0.4 mm 3 mps 738 mmHg 92%
    19:00 +3°C° 0.2 mm 3 mps 738 mmHg 93%
    20:00 +4°C° 0.2 mm 2 mps 738 mmHg 94%
    21:00 +4°C° 0.2 mm 2 mps 739 mmHg 94%
    22:00 +3°C° 0 mm 2 mps 739 mmHg 94%
    23:00 +3°C° 0 mm 2 mps 739 mmHg 93%

    17 December, Monday

    Time Temperature Precipitation Wind Pressure Humidity
    00:00 +3°C° 0 mm 2 mps 740 mmHg 92%
    01:00 +3°C° 0 mm 2 mps 740 mmHg 92%
    02:00 +3°C° 0 mm 2 mps 740 mmHg 91%
    03:00 +2°C° 0 mm 2 mps 740 mmHg 90%
    04:00 +2°C° 0 mm 2 mps 741 mmHg 90%
    05:00 +2°C° 0 mm 2 mps 741 mmHg 89%
    06:00 +2°C° 0 mm 2 mps 742 mmHg 89%
    07:00 +2°C° 0 mm 2 mps 742 mmHg 89%
    08:00 +2°C° 0 mm 2 mps 743 mmHg 89%
    09:00 +2°C° 0 mm 2 mps 743 mmHg 89%
    10:00 +3°C° 0 mm 2 mps 744 mmHg 88%
    11:00 +3°C° 0 mm 3 mps 744 mmHg 86%
    12:00 +3°C° 0 mm 3 mps 744 mmHg 84%
    13:00 +3°C° 0 mm 3 mps 744 mmHg 86%
    14:00 +3°C° 0 mm 3 mps 744 mmHg 87%
    15:00 +3°C° 0 mm 3 mps 744 mmHg 88%
    16:00 +1°C° 0 mm 4 mps 744 mmHg 89%
    17:00 +1°C° 0 mm 4 mps 744 mmHg 90%
    18:00 +1°C° 0 mm 4 mps 743 mmHg 91%
    19:00 +1°C° 0 mm 5 mps 743 mmHg 91%
    20:00 +1°C° 0 mm 5 mps 743 mmHg 91%
    21:00 +2°C° 0 mm 6 mps 743 mmHg 90%
    22:00 +2°C° 0 mm 6 mps 742 mmHg 91%
    23:00 +2°C° 0 mm 7 mps 742 mmHg 91%

    18 December, Tuesday

    Time Temperature Precipitation Wind Pressure Humidity
    00:00 +3°C° 0 mm 7 mps 742 mmHg 91%
    01:00 +2°C° 0 mm 8 mps 741 mmHg 91%
    02:00 +4°C° 0 mm 8 mps 740 mmHg 90%
    03:00 +5°C° 0 mm 9 mps 739 mmHg 90%
    04:00 +5°C° 0 mm 9 mps 738 mmHg 89%
    05:00 +5°C° 0 mm 9 mps 738 mmHg 89%
    06:00 +6°C° 0 mm 9 mps 737 mmHg 88%
    07:00 +6°C° 0.3 mm 9 mps 737 mmHg 88%
    08:00 +6°C° 0.3 mm 9 mps 736 mmHg 87%
    09:00 +6°C° 0.3 mm 9 mps 736 mmHg 86%
    10:00 +6°C° 0.7 mm 10 mps 736 mmHg 86%
    11:00 +6°C° 0.7 mm 10 mps 735 mmHg 86%
    12:00 +6°C° 0.7 mm 10 mps 735 mmHg 85%
    13:00 +6°C° 1 mm 10 mps 735 mmHg 85%
    14:00 +5°C° 1 mm 9 mps 734 mmHg 85%
    15:00 +5°C° 1 mm 8 mps 734 mmHg 85%
    16:00 +5°C° 0.8 mm 8 mps 734 mmHg 85%
    17:00 +5°C° 0.8 mm 8 mps 734 mmHg 86%
    18:00 +4°C° 0.8 mm 7 mps 733 mmHg 86%
    19:00 +4°C° 0.9 mm 7 mps 733 mmHg 86%
    20:00 +4°C° 0.9 mm 6 mps 733 mmHg 87%
    21:00 +4°C° 0.9 mm 6 mps 733 mmHg 87%
    22:00 +3°C° 0.9 mm 6 mps 732 mmHg 88%
    23:00 +3°C° 0.9 mm 5 mps 732 mmHg 88%
    Show more